Location: Bacharowice
(49.9333°N, 19.5833°E)
Time: 13:11:11
(UTC+00:00)

USA 305 - Pass Details

Date: 23 September 2021
Orbit: 547 x 588 km, 54.0° (Epoch: 03 October)

Event Time Altitude Azimuth Distance (km) Brightness Sun altitude
Rises 18:48:50 0° 291° (WNW) 2,749 7.9 -21.3°
Reaches altitude 10° 18:51:05 10° 295° (WNW) 1,859 6.7 -21.6°
Maximum altitude 18:55:16 61° 16° (NNE) 647 3.1 -22.2°
Enters shadow 18:55:41 58° 46° (NE) 670 3.0 -22.2°
